1496487601.13,53612,21.63,74176.3,21.37,-6.81,-2.91,0,*4C
1496487602.36,53613,21.63,74178.5,21.37,-6.43,-2.51,0,*4F
1496487603.61,53614,21.63,74178.0,21.31,-6.97,-2.83,0,*48
1496487604.87,53615,21.63,74176.3,21.31,-6.55,-2.47,0,*4F
1496487606.1,53616,21.63,74178.0,21.29,-6.73,-2.71,0,*44
1496487607.32,53617,21.63,74176.8,21.27,-7.19,-3.19,0,*49
1496487608.51,53618,21.63,74176.5,21.25,-6.89,-2.91,0,*4D
1496487609.72,53619,21.63,74178.3,21.21,-6.47,-2.47,0,*41
1496487610.94,53620,21.63,74178.8,21.21,-6.35,-2.47,0,*4E
1496487612.15,53621,21.63,74178.3,21.17,-7.95,-4.05,0,*41
1496487613.36,53622,21.63,74176.5,21.15,-7.11,-3.19,0,*46
1496487614.55,53623,21.63,74178.0,21.13,-6.81,-2.95,0,*4C
1496487615.77,53624,21.63,74176.3,21.11,-6.51,-2.83,0,*43
1496487617.0,53625,21.63,74176.5,21.07,-6.63,-2.91,0,*47
1496487618.23,53626,21.63,74176.5,21.07,-6.93,-3.03,0,*41
1496487619.44,53627,21.63,74174.5,21.03,-6.05,-2.43,0,*4E
1496487620.63,53628,21.63,74176.3,21.01,-5.97,-2.39,0,*46
1496487621.87,53629,21.63,74178.0,21.01,-6.19,-2.63,0,*4D
1496487623.12,53630,21.63,74176.8,20.99,-6.01,-2.51,0,*4D
1496487624.36,53631,21.63,74176.3,20.95,-5.77,-2.15,0,*42
1496487625.62,53632,21.63,74176.8,20.95,-5.27,-1.95,0,*4F
1496487626.81,53633,21.63,74178.5,20.93,-5.55,-2.19,0,*4A
1496487628.0,53634,21.63,74178.0,20.91,-6.69,-3.39,0,*40
1496487629.19,53635,21.63,74178.3,20.91,-6.13,-2.87,0,*48
1496487630.39,53636,21.63,74174.8,20.85,-6.43,-3.19,0,*4D
1496487631.58,53637,21.63,74174.8,20.83,-6.55,-3.35,0,*43
1496487632.82,53638,21.63,74180.0,20.81,-6.73,-3.51,0,*48
1496487634.04,53639,21.63,74182.0,20.79,-5.55,-2.59,0,*40
1496487635.25,53640,21.63,74178.3,20.77,-6.43,-3.31,0,*4B
1496487636.46,53641,21.63,74178.5,20.73,-6.05,-3.07,0,*49
1496487637.7,53642,21.63,74178.5,20.73,-5.43,-2.47,0,*4E
1496487638.94,53643,21.63,74176.3,20.73,-5.69,-2.87,0,*4B
1496487640.16,53644,21.63,74178.8,20.69,-6.89,-4.21,0,*40
1496487641.38,53645,21.63,74180.0,20.69,-6.77,-4.17,0,*45
1496487642.57,53646,21.63,74176.5,20.63,-6.43,-3.75,0,*48
1496487643.82,53647,21.63,74176.3,20.59,-5.85,-3.27,0,*4E
1496487645.06,53648,21.63,74178.8,20.59,-6.63,-4.25,0,*4F
1496487646.28,53649,21.63,74176.3,20.55,-5.39,-2.95,0,*43
1496487647.47,53650,21.63,74176.5,20.53,-5.39,-3.03,0,*43
1496487648.71,53651,21.63,74178.3,20.53,-4.89,-2.71,0,*4C
1496487649.95,53652,21.63,74176.0,20.51,-4.05,-1.87,0,*43
1496487651.16,53653,21.63,74178.8,20.51,-4.37,-2.19,0,*47
1496487652.41,53654,21.63,74178.8,20.47,-4.13,-2.07,0,*4E
1496487653.64,53655,21.63,74178.3,20.47,-3.79,-1.71,0,*46
1496487654.86,53656,21.63,74176.3,20.49,-3.55,-1.67,0,*42
1496487656.11,53657,21.63,74178.0,20.47,-3.47,-1.67,0,*4E
1496487657.35,53658,21.63,74178.3,20.47,-3.07,-1.39,0,*4E
1496487658.57,53659,21.63,74178.0,20.47,-3.35,-1.59,0,*48
1496487659.82,53660,21.63,74180.0,20.47,-3.43,-1.67,0,*4E
1496487661.04,53661,21.63,74176.3,20.45,-3.67,-2.19,0,*41
1496487662.22,53662,21.63,74176.5,20.45,-4.13,-2.79,0,*40
1496487663.44,53663,21.63,74178.0,20.39,-4.29,-3.11,0,*4C
1496487664.69,53664,21.63,74178.0,20.39,-4.05,-2.75,0,*46
1496487665.91,53665,21.63,74172.8,20.37,-3.19,-1.91,0,*4A
1496487667.1,53666,21.63,74176.8,20.37,-2.87,-1.63,0,*42
1496487668.35,53667,21.63,74176.0,20.37,-3.67,-2.51,0,*4E
1496487669.58,53668,21.63,74178.0,20.35,-3.35,-2.15,0,*44
1496487670.78,53669,21.63,74178.0,20.33,-3.39,-2.19,0,*43
1496487672.0,53670,21.63,74178.3,20.33,-3.19,-2.11,0,*41
1496487673.25,53671,21.63,74178.0,20.33,-3.51,-2.71,0,*4A
1496487674.45,53672,21.63,74178.0,20.33,-2.87,-1.75,0,*44
1496487675.69,53673,21.63,74178.5,20.29,-2.63,-1.87,0,*49
1496487676.91,53674,21.63,74178.3,20.29,-2.91,-2.03,0,*4C
1496487678.1,53675,21.63,74178.5,20.29,-3.15,-2.27,0,*46
1496487679.3,53676,21.63,74178.5,20.29,-2.99,-2.15,0,*41
1496487680.54,53677,21.63,74174.0,20.29,-2.63,-1.87,0,*4D
1496487681.75,53678,21.63,74176.3,20.27,-1.79,-0.93,0,*70
1496487682.99,53679,21.63,74176.5,20.27,-2.55,-1.83,0,*4C
1496487684.21,53680,21.63,74178.8,20.27,-3.31,-2.59,0,*4D
1496487685.48,53681,21.63,74178.5,20.25,-2.75,-2.07,0,*44
1496487686.75,53682,21.63,74176.8,20.25,-2.75,-2.07,0,*47
1496487687.96,53683,21.63,74176.5,20.21,-2.79,-2.15,0,*4D
1496487689.22,53684,21.63,74176.3,20.21,-2.59,-1.91,0,*47
1496487690.44,53685,21.63,74176.8,20.23,-1.87,-1.25,0,*4B
1496487691.67,53686,21.63,74176.5,20.21,-1.59,-1.01,0,*4F
1496487692.88,53687,21.63,74174.0,20.23,-1.35,-0.73,0,*72
1496487694.1,53688,21.63,74178.8,20.21,-1.75,-1.17,0,*48
1496487695.34,53689,21.63,74176.3,20.21,-1.99,-1.59,0,*41
1496487696.61,53690,21.63,74174.5,20.21,-2.47,-1.99,0,*45
1496487697.83,53691,21.63,74178.3,20.17,-2.15,-1.67,0,*47
1496487699.07,53692,21.63,74178.8,20.17,-1.39,-0.81,0,*70
1496487700.29,53693,21.63,74176.8,20.15,-2.39,-2.03,0,*48
1496487701.52,53694,21.63,74178.0,20.15,-1.79,-1.39,0,*42
1496487702.75,53695,21.63,74176.3,20.13,-2.23,-1.95,0,*4F
1496487703.95,53696,21.63,74176.3,20.11,-1.71,-1.29,0,*4D
1496487705.18,53697,21.63,74176.3,20.11,-1.35,-1.09,0,*4E
1496487706.4,53698,21.63,74176.8,20.11,-1.01,-0.77,0,*7E
1496487707.59,53699,21.63,74178.0,20.11,-0.37,-0.11,0,*4B
1496487708.82,53700,21.63,74176.5,20.13,-0.93,-0.61,0,*41
1496487710.0,53701,21.69,74180.0,20.11,-0.37,-0.15,0,*4F
1496487711.19,53702,21.63,74176.3,20.11,0.01,0.25,0,*7A
1496487712.4,53703,21.63,74178.3,20.13,0.01,0.25,0,*79
1496487713.63,53704,21.63,74178.5,20.13,0.17,0.41,0,*4B
1496487714.85,53705,21.69,74176.5,20.13,-0.33,-0.11,0,*49
1496487716.08,53706,21.63,74174.8,20.13,-0.85,-0.69,0,*48
1496487717.27,53707,21.63,74176.5,20.11,-0.73,-0.53,0,*4B
1496487718.5,53708,21.63,74176.0,20.13,-0.97,-0.69,0,*45
1496487719.75,53709,21.63,74176.5,20.13,-1.05,-0.69,0,*7E
1496487720.96,53710,21.63,74174.8,20.11,-1.01,-0.73,0,*7B
1496487722.2,53711,21.63,74178.5,20.11,-1.01,-0.85,0,*73
1496487723.41,53712,21.63,74178.0,20.11,-1.17,-0.89,0,*7B
1496487724.62,53713,21.63,74178.3,20.11,-0.41,-0.23,0,*48
1496487725.82,53714,21.63,74178.3,20.09,-0.29,-0.03,0,*7A
1496487727.04,53715,21.63,74176.0,20.09,-0.23,0.09,0,*56
1496487728.27,53716,21.63,74178.0,20.09,-0.11,0.21,0,*6E
1496487729.48,53717,21.63,74176.8,20.09,-0.49,-0.15,0,*48
1496487730.69,53718,21.63,74176.8,20.11,-0.65,-0.27,0,*41
1496487731.88,53719,21.63,74176.3,20.09,-0.37,0.01,0,*57
1496487733.08,53720,21.63,74176.3,20.07,-1.17,-0.65,0,*7F
1496487734.31,53721,21.63,74178.3,20.09,-2.39,-1.83,0,*46
1496487735.53,53722,21.63,74176.0,20.07,-2.43,-1.87,0,*42
1496487736.71,53723,21.63,74174.0,20.03,-1.25,-0.61,0,*7D
1496487737.91,53724,21.63,74176.3,20.03,-0.53,0.13,0,*62
1496487739.15,53725,21.63,74178.0,20.03,-1.01,-0.27,0,*7F
1496487740.39,53726,21.63,74176.0,20.03,-0.97,-0.23,0,*46
1496487741.62,53727,21.63,74178.5,20.03,-1.09,-0.27,0,*75
1496487742.82,53728,21.63,74176.3,20.03,-0.85,-0.03,0,*79
1496487744.03,53729,21.63,74174.5,20.01,-0.73,0.09,0,*54
1496487745.28,53730,21.69,74178.3,20.01,-1.01,-0.15,0,*78
1496487746.47,53731,21.69,74178.5,19.99,-2.15,-1.25,0,*46
1496487747.7,53732,21.63,74178.5,19.99,-1.87,-0.93,0,*71
1496487748.93,53733,21.63,74178.5,19.95,-1.91,-0.93,0,*7B
1496487750.13,53734,21.63,74176.0,19.95,-0.81,0.29,0,*60
1496487751.33,53735,21.63,74176.3,19.95,-0.85,0.01,0,*5F
1496487752.56,53736,21.63,74174.0,19.89,-1.29,-0.41,0,*7F
1496487753.77,53737,21.69,74180.5,19.89,-1.25,-0.29,0,*7C
1496487754.99,53738,21.63,74176.3,19.89,-0.65,0.33,0,*60
1496487756.21,53739,21.63,74174.5,19.89,-0.29,0.71,0,*6F
1496487757.45,53740,21.63,74176.0,19.89,-0.93,-0.19,0,*43
1496487758.65,53741,21.69,74176.3,19.89,-0.77,-0.03,0,*73
1496487759.84,53742,21.63,74178.0,19.87,-1.17,-0.29,0,*71
1496487761.04,53743,21.69,74178.0,19.85,-0.73,0.01,0,*56
1496487762.27,53744,21.63,74178.3,19.85,-0.57,0.29,0,*6D
1496487763.48,53745,21.63,74176.3,19.85,0.05,0.87,0,*72
1496487764.68,53746,21.63,74178.5,19.83,0.09,0.87,0,*7B
1496487765.88,53747,21.63,74178.0,19.83,-0.03,0.75,0,*50
1496487767.09,53748,21.69,74176.8,19.83,0.17,0.91,0,*4D
1496487768.29,53749,21.63,74176.3,19.83,-0.03,0.63,0,*59
1496487769.52,53750,21.63,74176.0,19.81,-0.15,0.47,0,*62
1496487770.75,53751,21.63,74176.0,19.81,-0.03,0.59,0,*5B
1496487771.97,53752,21.63,74178.0,19.81,0.09,0.71,0,*75
1496487773.19,53753,21.63,74176.8,19.79,0.25,0.87,0,*44
1496487774.38,53754,21.69,74176.5,19.79,0.09,0.71,0,*74
1496487775.59,53755,21.63,74176.8,19.77,0.09,0.55,0,*7D
1496487776.81,53756,21.69,74178.5,19.79,0.59,1.09,0,*7D
1496487778.02,53757,21.63,74174.0,19.77,0.95,1.41,0,*7E
1496487779.23,53758,21.69,74176.5,19.77,1.41,1.75,0,*4E
1496487780.48,53759,21.69,74176.3,19.77,1.25,1.47,0,*4C
1496487781.68,53760,21.69,74178.5,19.79,1.05,1.33,0,*49
1496487782.94,53761,21.69,74176.3,19.77,1.29,1.47,0,*4B
1496487784.16,53762,21.69,74178.5,19.77,0.21,-0.07,0,*59
1496487785.34,53763,21.63,74176.3,19.75,-0.53,-0.69,0,*4A
1496487786.52,53764,21.69,74178.5,19.71,-0.33,-0.69,0,*4F
1496487787.77,53765,21.69,74178.0,19.67,-2.07,-2.47,0,*42
1496487789.0,53766,21.69,74178.5,19.65,-1.17,-1.63,0,*44
1496487790.23,53767,21.69,74176.5,19.61,-0.93,-1.47,0,*7A
1496487791.45,53768,21.63,74176.3,19.59,0.29,-0.29,0,*6B
1496487792.64,53769,21.69,74178.0,19.57,0.33,-0.33,0,*64
1496487793.86,53770,21.69,74178.5,19.55,0.17,-0.61,0,*6F
1496487795.06,53771,21.69,74178.0,19.55,-0.33,-1.33,0,*73
1496487796.28,53772,21.69,74176.8,19.55,0.29,-0.69,0,*68
1496487797.48,53773,21.69,74178.0,19.49,0.47,-0.61,0,*64
1496487798.73,53774,21.63,74176.5,19.47,0.41,-0.93,0,*66
1496487799.96,53775,21.69,74178.0,19.45,0.25,-1.05,0,*59
1496487801.19,53776,21.69,74176.8,19.45,0.51,-1.05,0,*59
1496487802.39,53777,21.69,74176.3,19.43,0.05,-1.55,0,*6A
1496487803.66,53778,21.69,74174.8,19.43,1.37,-0.23,0,*55
1496487804.87,53779,21.69,74176.3,19.41,1.43,-0.37,0,*50
1496487806.11,53780,21.69,74176.8,19.41,1.59,-0.27,0,*5C
1496487807.33,53781,21.63,74174.5,19.39,0.33,-1.79,0,*55
1496487808.56,53782,21.69,74176.0,19.39,0.59,-1.63,0,*51
1496487809.79,53783,21.69,74178.8,19.35,0.75,-1.67,0,*56
1496487811.0,53784,21.69,74178.8,19.35,1.75,-0.57,0,*52
1496487812.22,53785,21.63,74174.0,19.33,1.67,-0.77,0,*54
1496487813.43,53786,21.69,74178.5,19.33,1.97,-0.73,0,*5C
1496487814.69,53787,21.69,74176.8,19.33,1.37,-1.47,0,*61
1496487815.89,53788,21.69,74176.0,19.31,1.67,-1.25,0,*6D
1496487817.09,53789,21.69,74176.0,19.27,1.63,-1.33,0,*68
1496487818.34,53790,21.69,74178.5,19.27,1.37,-1.91,0,*69
1496487819.57,53791,21.69,74178.0,19.25,0.91,-2.35,0,*5A
1496487820.8,53792,21.69,74178.0,19.23,0.75,-2.71,0,*55
1496487821.97,53793,21.69,74176.3,19.19,0.43,-3.07,0,*58
1496487823.17,53794,21.69,74176.5,19.19,0.21,-3.39,0,*56
1496487824.36,53795,21.69,74176.3,19.15,0.67,-3.03,0,*50
1496487825.63,53796,21.69,74178.3,19.13,1.09,-2.75,0,*6C
1496487826.84,53797,21.69,74178.0,19.11,1.83,-2.03,0,*6C
1496487828.08,53798,21.69,74178.5,19.11,1.89,-2.11,0,*6A
1496487829.26,53799,21.69,74178.3,19.11,1.83,-2.39,0,*6B
1496487830.53,53800,21.69,74176.8,19.09,1.55,-2.75,0,*6E
1496487831.75,53801,21.69,74176.3,19.07,0.95,-3.47,0,*5C
1496487832.96,53802,21.69,74178.3,19.03,0.59,-3.95,0,*54
1496487834.19,53803,21.69,74178.5,19.01,1.59,-2.91,0,*63
1496487835.46,53804,21.69,74174.8,19.01,2.51,-2.11,0,*67
1496487836.73,53805,21.69,74176.3,19.01,2.01,-2.75,0,*61
1496487837.99,53806,21.69,74178.8,18.99,2.13,-2.67,0,*62
1496487839.2,53807,21.69,74178.3,18.97,2.35,-2.55,0,*68
1496487840.41,53808,21.69,74176.3,18.99,1.79,-3.11,0,*63
1496487841.63,53809,21.69,74176.8,18.97,2.35,-2.55,0,*66
1496487842.84,53810,21.69,74176.0,18.97,2.51,-2.43,0,*6B
1496487844.05,53811,21.69,74176.5,18.97,2.25,-2.79,0,*60
1496487845.27,53812,21.69,74174.8,18.97,2.09,-2.95,0,*6F
1496487846.46,53813,21.69,74178.0,18.97,2.27,-2.91,0,*66
1496487847.65,53814,21.69,74176.8,18.97,2.91,-2.15,0,*60
1496487848.86,53815,21.69,74182.0,18.97,2.69,-2.39,0,*68
1496487850.05,53816,21.69,74174.8,18.97,2.35,-2.83,0,*63
1496487851.32,53817,21.69,74176.5,18.95,2.51,-2.67,0,*68
1496487852.58,53818,21.69,74178.0,18.95,2.51,-2.55,0,*66
1496487853.79,53819,21.69,74176.0,18.93,2.95,-2.11,0,*69
1496487855.06,53820,21.69,74182.0,18.95,3.11,-1.95,0,*67
1496487856.32,53821,21.69,74178.5,18.95,2.47,-2.59,0,*67
1496487857.53,53822,21.69,74176.0,18.97,2.21,-2.95,0,*66
1496487858.73,53823,21.69,74176.8,18.97,2.61,-2.31,0,*6D
1496487859.91,53824,21.69,74174.5,18.97,2.61,-2.43,0,*6F
1496487861.15,53825,21.69,74176.0,18.95,2.01,-2.91,0,*65
1496487862.39,53826,21.69,74174.5,18.97,2.85,-2.07,0,*67
1496487863.57,53827,21.69,74176.8,18.97,3.55,-1.21,0,*6D
1496487864.81,53828,21.69,74176.5,18.97,3.67,-1.09,0,*69
1496487866.05,53829,21.69,74176.0,19.01,2.55,-2.27,0,*69
1496487867.29,53830,21.69,74178.0,19.01,3.15,-1.33,0,*62
1496487868.51,53831,21.69,74178.0,19.03,3.29,-1.35,0,*68
1496487869.72,53832,21.69,74172.5,19.03,2.89,-1.63,0,*63
1496487870.95,53833,21.69,74176.8,19.09,2.85,-1.63,0,*64
1496487872.19,53834,21.69,74178.5,19.09,1.93,-2.43,0,*66
1496487873.43,53835,21.69,74176.0,19.09,2.27,-2.11,0,*6C
1496487874.63,53836,21.69,74178.3,19.13,3.59,-0.49,0,*53
1496487875.86,53837,21.69,74174.3,19.13,3.25,-0.85,0,*59
1496487877.11,53838,21.69,74176.0,19.13,3.97,0.17,0,*79
1496487878.33,53839,21.69,74174.5,19.21,5.51,1.83,0,*49
1496487879.55,53840,21.69,74174.3,19.25,4.81,1.25,0,*43
1496487880.77,53841,21.69,74178.3,19.31,5.05,1.67,0,*4C
1496487882.04,53842,21.69,74178.3,19.35,6.57,3.41,0,*49
1496487883.28,53843,21.69,74178.8,19.41,6.35,3.33,0,*4A
1496487884.51,53844,21.69,74176.8,19.49,5.77,2.73,0,*45
1496487885.74,53845,21.69,74178.0,19.57,6.53,3.79,0,*45
1496487886.98,53846,21.69,74174.3,19.65,7.37,4.75,0,*4F
1496487888.21,53847,21.69,74176.0,19.71,7.11,4.67,0,*4C
1496487889.39,53848,21.69,74176.8,19.79,7.41,5.19,0,*46
1496487890.59,53849,21.69,74176.0,19.87,8.75,6.79,0,*4B
1496487891.82,53850,21.69,74178.8,19.95,8.93,6.91,0,*4E
1496487893.06,53851,21.69,74174.5,20.07,8.37,6.43,0,*4F
1496487894.31,53852,21.69,74174.5,20.13,8.37,6.65,0,*4D
1496487895.54,53853,21.69,74178.0,20.25,8.09,6.43,0,*40
1496487896.78,53854,21.69,74176.3,20.35,7.05,5.51,0,*45
1496487898.04,53855,21.69,74176.8,20.39,6.17,4.79,0,*41
1496487899.22,53856,21.69,74176.3,20.45,7.01,5.67,0,*41
1496487900.42,53857,21.69,74178.3,20.53,7.77,6.83,0,*4F
1496487901.63,53858,21.69,74176.0,20.61,8.87,8.09,0,*4D
1496487902.86,53859,21.69,74174.5,20.71,8.55,7.91,0,*4C
1496487904.06,53860,21.69,74178.3,20.81,8.05,7.55,0,*44
1496487905.28,53861,21.69,74176.8,20.89,8.33,8.09,0,*4E
1496487906.46,53862,21.69,74172.8,20.97,8.15,8.01,0,*4E
1496487907.66,53863,21.69,74176.8,21.05,8.71,8.69,0,*49
1496487908.91,53864,21.69,74180.3,21.15,8.89,8.89,0,*46
1496487910.15,53865,21.69,74174.3,21.23,8.89,9.15,0,*46
1496487911.42,53866,21.69,74174.3,21.31,9.15,9.49,0,*4B
1496487912.63,53867,21.69,74176.3,21.41,7.59,7.91,0,*40
1496487913.87,53868,21.69,74176.3,21.47,5.23,5.93,0,*46
1496487915.11,53869,21.69,74176.5,21.57,5.71,6.35,0,*4E
1496487916.34,53870,21.69,74176.3,21.59,5.81,6.17,0,*47
1496487917.53,53871,21.69,74174.0,21.59,3.81,4.57,0,*46
1496487918.75,53872,21.69,74176.0,21.63,3.45,4.27,0,*43
1496487919.96,53873,21.69,74178.3,21.63,2.95,4.01,0,*4A
1496487921.19,53874,21.69,74176.0,21.61,2.31,3.49,0,*4A
1496487922.45,53875,21.69,74176.0,21.61,2.21,3.53,0,*41
1496487923.68,53876,21.69,74176.5,21.63,2.21,3.53,0,*40
1496487924.91,53877,21.69,74176.8,21.61,1.75,3.07,0,*40
1496487926.14,53878,21.69,74178.0,21.65,1.47,2.91,0,*44
1496487927.37,53879,21.69,74174.8,21.61,0.29,1.75,0,*71
1496487928.58,53880,21.69,74178.0,21.59,-0.37,1.21,0,*5F
1496487929.82,53881,21.69,74176.8,21.57,-0.19,1.51,0,*5B
1496487931.03,53882,21.69,74176.3,21.53,-0.41,1.37,0,*51
1496487932.23,53883,21.69,74178.5,21.49,0.09,1.93,0,*44
1496487933.48,53884,21.69,74176.8,21.51,0.47,2.43,0,*7E
1496487934.72,53885,21.69,74178.3,21.47,0.59,2.61,0,*77
1496487935.96,53886,21.69,74178.5,21.47,0.71,2.91,0,*71
1496487937.22,53887,21.69,74178.3,21.47,0.87,3.11,0,*70
1496487938.46,53888,21.69,74172.8,21.47,0.09,2.51,0,*4C
1496487939.72,53889,21.69,74176.0,21.47,0.33,2.73,0,*74
1496487940.93,53890,21.69,74176.0,21.45,-0.53,1.97,0,*5C
1496487942.16,53891,21.69,74178.3,21.43,-1.25,1.25,0,*62
1496487943.39,53892,21.69,74182.3,21.41,-0.93,1.71,0,*5E
1496487944.6,53893,21.69,74176.0,21.39,-0.29,2.31,0,*56
1496487945.83,53894,21.69,74178.3,21.39,0.25,2.99,0,*72
1496487947.06,53895,21.69,74176.0,21.39,0.01,2.81,0,*4C
1496487948.3,53896,21.69,74180.0,21.39,-0.41,2.55,0,*5F
1496487949.53,53897,21.69,74176.5,21.37,0.71,3.71,0,*79
1496487950.75,53898,21.69,74180.0,21.37,1.63,4.85,0,*48
1496487951.97,53899,21.69,74178.5,21.37,2.01,5.07,0,*45
1496487953.21,53900,21.69,74176.8,21.39,1.33,4.27,0,*4B
1496487954.47,53901,21.69,74176.5,21.39,0.83,3.75,0,*70
1496487955.71,53902,21.69,74176.5,21.41,0.87,3.97,0,*74
1496487956.92,53903,21.69,74178.5,21.39,1.41,4.45,0,*49
1496487958.14,53904,21.69,74176.8,21.41,1.21,4.23,0,*47
1496487959.37,53905,21.69,74176.0,21.41,0.63,3.67,0,*76
1496487960.62,53906,21.69,74178.0,21.39,3.25,4.75,0,*4F
1496487961.88,53907,21.69,74178.0,21.39,2.01,4.31,0,*49
1496487963.12,53908,21.69,74176.8,21.39,-0.03,2.77,0,*6F
1496487964.36,53909,21.69,74178.5,21.35,-0.19,3.11,0,*58
1496487965.6,53910,21.69,74176.8,21.35,-0.19,3.23,0,*51
1496487966.84,53911,21.69,74176.3,21.31,-0.07,3.41,0,*6F
1496487968.04,53912,21.69,74178.0,21.29,0.59,3.93,0,*7C
1496487969.28,53913,21.69,74176.3,21.31,-0.11,3.07,0,*58
1496487970.49,53914,21.69,74176.8,21.29,-1.51,1.93,0,*6C
1496487971.7,53915,21.69,74174.5,21.25,-0.53,2.77,0,*5B
1496487972.9,53916,21.69,74178.5,21.25,-0.65,2.61,0,*5A
1496487974.13,53917,21.69,74176.3,21.23,-0.41,2.81,0,*55
1496487975.38,53918,21.69,74176.8,21.19,-0.23,3.03,0,*5C
1496487976.62,53919,21.69,74176.5,21.19,0.21,3.23,0,*70
1496487977.84,53920,21.69,74178.5,21.17,-0.93,2.25,0,*57
1496487979.08,53921,21.69,74178.0,21.15,-1.17,2.09,0,*67
1496487980.3,53922,21.69,74178.3,21.11,-1.51,1.47,0,*6B
1496487981.56,53923,21.69,74180.0,21.07,-1.47,1.51,0,*6D
1496487982.78,53924,21.69,74178.8,21.03,-1.67,1.25,0,*6F
1496487984.0,53925,21.69,74176.8,21.03,-1.51,1.63,0,*69
1496487985.26,53926,21.69,74178.8,20.99,-1.39,1.55,0,*63
1496487986.49,53927,21.69,74178.0,20.95,-1.63,1.29,0,*6A
1496487987.7,53928,21.69,74176.8,20.93,-1.33,1.71,0,*6B
1496487988.9,53929,21.69,74178.8,20.91,-0.19,2.73,0,*50
1496487990.14,53930,21.69,74174.5,20.89,0.33,3.11,0,*71
1496487991.33,53931,21.69,74178.5,20.85,-0.29,2.35,0,*5D
1496487992.53,53932,21.69,74176.0,20.85,-0.29,2.35,0,*5E
1496487993.75,53933,21.69,74178.5,20.81,-0.07,2.55,0,*61
1496487994.99,53934,21.69,74178.3,20.81,0.25,2.81,0,*72
1496487996.2,53935,21.69,74178.0,20.79,-0.23,2.27,0,*53
1496487997.44,53936,21.69,74178.8,20.77,0.17,2.69,0,*7E
1496487998.65,53937,21.69,74176.8,20.73,0.05,2.55,0,*47
1496487999.9,53938,21.69,74180.3,20.73,1.47,3.97,0,*40
1496488001.13,53939,21.69,74176.8,20.71,1.93,4.31,0,*41
1496488002.34,53940,21.69,74178.0,20.71,1.71,4.07,0,*46
1496488003.55,53941,21.69,74176.8,20.71,1.43,3.59,0,*4A
1496488004.77,53942,21.69,74176.3,20.73,-0.57,1.59,0,*50
1496488006.0,53943,21.69,74174.5,20.69,-0.15,2.05,0,*56
1496488007.18,53944,21.69,74176.3,20.63,-0.29,1.75,0,*50
1496488008.4,53945,21.69,74178.3,20.63,0.55,2.69,0,*79
1496488009.67,53946,21.69,74178.0,20.61,1.21,3.15,0,*40
1496488010.92,53947,21.69,74178.0,20.59,0.21,2.17,0,*78
1496488012.15,53948,21.69,74176.0,20.59,-0.03,1.85,0,*62
1496488013.37,53949,21.69,74176.0,20.55,-0.29,1.59,0,*56
1496488014.56,53950,21.69,74176.8,20.53,0.05,1.85,0,*4A
1496488015.8,53951,21.69,74176.5,20.51,0.37,2.05,0,*73
1496488016.97,53952,21.69,74178.5,20.49,0.09,1.83,0,*49
1496488018.2,53953,21.69,74174.3,20.49,0.83,2.51,0,*76
1496488019.45,53954,21.69,74176.5,20.47,0.75,2.47,0,*71
1496488020.65,53955,21.69,74178.0,20.45,1.41,2.85,0,*4A
1496488021.87,53956,21.69,74178.3,20.45,1.59,3.07,0,*4B
1496488023.1,53957,21.69,74176.8,20.43,1.59,2.99,0,*4A
1496488024.36,53958,21.69,74176.3,20.43,1.21,2.47,0,*49
1496488025.63,53959,21.69,74176.3,20.43,1.55,2.81,0,*41
1496488026.89,53960,21.69,74178.3,20.39,2.01,3.11,0,*4C
1496488028.12,53961,21.69,74176.5,20.39,2.43,3.55,0,*4B
1496488029.33,53962,21.69,74176.0,20.37,2.61,3.71,0,*40
1496488030.56,53963,21.69,74176.0,20.37,2.43,3.45,0,*46
1496488031.8,53964,21.69,74176.3,20.37,2.17,3.67,0,*40
1496488033.03,53965,21.69,74176.8,20.37,2.39,3.45,0,*4D
1496488034.27,53966,21.69,74176.5,20.35,1.67,2.61,0,*43
1496488035.54,53967,21.69,74176.8,20.35,1.29,2.01,0,*4E
1496488036.79,53968,21.69,74178.0,20.35,1.25,1.97,0,*41
1496488038.03,53969,21.69,74174.0,20.33,1.93,2.77,0,*46
1496488039.26,53970,21.69,74176.3,20.31,2.09,2.91,0,*44
1496488040.5,53971,21.69,74176.0,20.31,1.83,2.47,0,*4F
1496488041.74,53972,21.69,74178.0,20.31,2.27,3.03,0,*40
1496488043.0,53973,21.69,74178.5,20.31,2.43,2.89,0,*40
1496488044.22,53974,21.69,74176.5,20.29,2.05,2.61,0,*4A
1496488045.42,53975,21.69,74176.5,20.29,1.83,2.43,0,*46
1496488046.63,53976,21.69,74176.5,20.27,2.27,2.85,0,*4C
1496488047.8,53977,21.69,74178.3,20.27,2.35,2.91,0,*4B
1496488049.03,53978,21.69,74174.5,20.25,1.93,2.35,0,*47
1496488050.28,53979,21.69,74176.0,20.25,2.09,2.59,0,*4C
1496488051.54,53980,21.69,74178.8,20.25,1.93,2.43,0,*41
1496488052.77,53981,21.69,74176.5,20.23,1.85,2.25,0,*41
1496488053.99,53982,21.69,74176.0,20.21,0.63,1.05,0,*78
1496488055.22,53983,21.69,74174.8,20.21,1.79,2.13,0,*47
1496488056.48,53984,21.69,74176.8,20.17,2.39,2.73,0,*44
1496488057.74,53985,21.69,74176.3,20.17,2.47,2.73,0,*4C
1496488058.95,53986,21.69,74172.8,20.15,1.41,1.63,0,*4A
1496488060.16,53987,21.69,74180.0,20.15,1.75,2.09,0,*43
1496488061.42,53988,21.69,74176.5,20.13,2.47,2.77,0,*41
1496488062.65,53989,21.69,74178.5,20.11,1.93,2.17,0,*4E
1496488063.86,53990,21.69,74176.0,20.11,1.55,1.83,0,*42
1496488065.13,53991,21.69,74178.5,20.13,1.29,1.37,0,*45
1496488066.37,53992,21.69,74178.3,20.07,1.29,1.55,0,*47
1496488067.58,53993,21.69,74176.5,20.07,2.27,2.47,0,*4B
1496488068.83,53994,21.69,74176.3,20.05,1.63,1.71,0,*4B
1496488070.04,53995,21.69,74176.3,20.03,2.51,2.65,0,*48
1496488071.27,53996,21.69,74176.3,20.03,1.97,2.05,0,*44
1496488072.51,53997,21.69,74178.3,20.01,2.27,2.43,0,*4D
1496488073.71,53998,21.75,74182.0,20.01,2.27,2.27,0,*40
1496488074.92,53999,21.69,74178.0,19.99,1.67,1.75,0,*49
1496488076.13,54000,21.69,74178.5,19.99,2.39,2.35,0,*48
1496488077.36,54001,21.69,74178.0,19.99,2.85,2.89,0,*49
1496488078.57,54002,21.75,74180.5,19.99,2.61,2.51,0,*45
1496488079.79,54003,21.69,74176.8,19.95,0.79,0.63,0,*40
1496488081.05,54004,21.69,74178.5,19.93,2.09,1.97,0,*4E
1496488082.3,54005,21.69,74174.5,19.93,2.69,2.59,0,*48
1496488083.51,54006,21.69,74178.8,19.91,2.91,2.81,0,*4B
1496488084.74,54007,21.69,74182.8,19.91,3.49,3.41,0,*43
1496488085.98,54008,21.69,74176.0,19.91,3.71,3.71,0,*44
1496488087.21,54009,21.69,74176.3,19.91,3.03,2.89,0,*46
1496488088.46,54010,21.69,74178.3,19.89,2.25,2.01,0,*42
1496488089.7,54011,21.69,74176.3,19.89,2.27,2.05,0,*45
1496488090.93,54012,21.69,74180.0,19.87,1.43,1.21,0,*4C
1496488092.15,54013,21.69,74178.3,19.85,1.41,1.13,0,*4C
1496488093.39,54014,21.69,74178.3,19.83,1.13,0.91,0,*71
1496488094.65,54015,21.69,74178.3,19.81,1.71,1.43,0,*48
1496488095.87,54016,21.69,74178.5,19.79,2.25,2.05,0,*4F
1496488097.1,54017,21.69,74178.8,19.77,1.29,1.05,0,*4C
1496488098.33,54018,21.69,74176.3,19.77,2.35,2.13,0,*49
1496488099.54,54019,21.69,74180.0,19.71,2.05,1.75,0,*4E
1496488100.77,54020,21.69,74180.3,19.75,2.85,2.59,0,*45
1496488101.98,54021,21.69,74176.8,19.75,3.15,2.91,0,*48
1496488103.21,54022,21.69,74176.0,19.71,3.37,3.11,0,*46
1496488104.44,54023,21.69,74176.5,19.71,2.89,2.69,0,*4D
1496488105.64,54024,21.69,74176.0,19.71,3.29,3.19,0,*47
1496488106.88,54025,21.69,74178.3,19.71,3.53,3.41,0,*46
1496488108.11,54026,21.69,74178.3,19.69,2.99,2.89,0,*4E
1496488109.34,54027,21.69,74174.5,19.67,3.41,3.23,0,*44
1496488110.58,54028,21.69,74176.3,19.67,2.47,2.13,0,*4E
1496488111.81,54029,21.75,74180.0,19.67,2.47,2.25,0,*4A
1496488113.05,54030,21.69,74172.8,19.67,2.51,2.51,0,*46
1496488114.29,54031,21.69,74178.8,19.65,3.41,3.29,0,*4B
1496488115.49,54032,21.69,74176.0,19.65,3.63,3.55,0,*43
1496488116.74,54033,21.69,74176.3,19.65,3.53,3.53,0,*47